User: anonymous   Login
Location: Wawayanda State Park
(41.1833°N, 74.4333°W)
Time: 01:04:45
(UTC-05:00)
Language:

Landsat 7 - Orbit

View from above orbital plane
View from above orbital plane
View from above satellite
View from above satellite

Ground track
Ground track

The orbit data is extracted from the following two-line orbital elements,

1 25682U 99020A   18055.34816901 -.00000119 +00000-0 -16409-4 0  9991
2 25682 098.1825 127.6205 0000841 098.0412 262.0884 14.57122749003317
Epoch (UTC): 24 February 2018 08:21:21
Eccentricity: 0.0000841
inclination: 98.1825°
perigee height: 702 km
apogee height: 703 km
right ascension of ascending node: 127.6205°
argument of perigee: 98.0412°
revolutions per day: 14.57122749
mean anomaly at epoch: 262.0884°
orbit number at epoch: 331

The dashed part of the orbit path shows where the satellite is in the earth's shadow,  

DLR